Flood From: 18-02-2018 10:00 Until: 19-02-2018 06:00 warning for: Flood Level: Yellow info button

Although rather usual in this region, locally or potentially dangerous phenomena are expected. (such as local winds, summer thunderstorms, rising streams or high waves) Be aware and pay attention to the latest weather updates, especially if you carry out activities exposed to weather or close to a stream or shoreline. 


Meteo18 Weather Cam more information Meteo18 Weather Cam


Thunder radar more information blitzortung!


Rain radar more information rain snow radar


Visit our other weather sites:

Template documentation
and downloads

And another site



Weather Underground History page Text

Daily Summary for February 22, 2017 Units:  Metric    English   Both
« Previous Day
Next Day »
Daily Weekly Monthly Yearly Custom
  High: Low: Average:
Temperature: -17.8 °C -13.4 °C -12.9 °C
Dew Point: -17.8 °C -14.3 °C -13.9 °C
Humidity: Humidity % 83 % 89 %
Wind Speed: 0 km/h 2.6 km/h 15 km/h
Wind Gust: 0 km/h - -
Wind:- - SW
Pressure: 0 hPa 34462.7 hPa -
Precipitation: 0 mm    
Historical Graphs
 
 
Tabular Data for February 22, 2017
Time Temperature Dew Point Pressure Wind Wind Speed Wind Gust Humidity Rainfall Rate (Hourly)
-17.8 °C -17.8 °C 0 hPa Calm     Humidity % 0 mm
00:02 -12.6 °C -13.1 °C 34645.6 hPa WSW 7.7 km/h 25.9 km/h 94 % 0 mm
00:12 -12.6 °C -13.1 °C 34645.6 hPa WSW 5.1 km/h 25.9 km/h 94 % 0 mm
00:17 -12.6 °C -13.1 °C 34645.6 hPa WSW 25.9 km/h 25.9 km/h 94 % 0 mm
00:22 -12.6 °C -13.1 °C 34645.6 hPa West 10.3 km/h 25.9 km/h 94 % 0 mm
00:27 -12.6 °C -13.1 °C 34645.6 hPa West 10.3 km/h 25.9 km/h 94 % 0 mm
00:32 -12.6 °C -13.1 °C 34645.6 hPa SW 15.6 km/h 31.1 km/h 94 % 0 mm
00:37 -12.6 °C -13.2 °C 34645.6 hPa WSW 15.6 km/h 31.1 km/h 93 % 0 mm
00:42 -12.6 °C -13.1 °C 34645.6 hPa WSW 10.3 km/h 31.1 km/h 94 % 0 mm
00:47 -12.6 °C -13.1 °C 34635.4 hPa SW 10.3 km/h 25.9 km/h 94 % 0 mm
00:52 -12.6 °C -13.1 °C 34645.6 hPa SW 5.1 km/h 25.9 km/h 94 % 0 mm
01:02 -12.7 °C -13.2 °C 34635.4 hPa West 7.7 km/h 18.2 km/h 94 % 0 mm
01:07 -12.7 °C -13.2 °C 34635.4 hPa SW 15.6 km/h 20.8 km/h 94 % 0 mm
01:12 -12.7 °C -13.2 °C 34635.4 hPa West 15.6 km/h 20.8 km/h 94 % 0 mm
01:17 -12.7 °C -13.3 °C 34635.4 hPa WSW 18.2 km/h 28.5 km/h 93 % 0 mm
01:22 -12.7 °C -13.3 °C 34635.4 hPa SW 12.9 km/h 28.5 km/h 93 % 0 mm
01:27 -12.7 °C -13.3 °C 34635.4 hPa WSW 15.6 km/h 25.9 km/h 93 % 0 mm
01:32 -12.7 °C -13.3 °C 34635.4 hPa SW 7.7 km/h 25.9 km/h 93 % 0 mm
01:37 -12.7 °C -13.3 °C 34635.4 hPa SW 10.3 km/h 25.9 km/h 93 % 0 mm
01:42 -12.7 °C -13.3 °C 34635.4 hPa WSW 15.6 km/h 25.9 km/h 93 % 0 mm
01:47 -12.7 °C -13.3 °C 34635.4 hPa SW 18.2 km/h 23.3 km/h 93 % 0 mm
01:52 -12.8 °C -13.4 °C 34625.2 hPa WSW 10.3 km/h 23.3 km/h 93 % 0 mm
01:57 -12.8 °C -13.4 °C 34625.2 hPa SW 12.9 km/h 25.9 km/h 93 % 0 mm
02:02 -12.8 °C -13.3 °C 34625.2 hPa SW 10.3 km/h 25.9 km/h 94 % 0 mm
02:07 -12.8 °C -13.3 °C 34611.7 hPa SW 12.9 km/h 25.9 km/h 94 % 0 mm
02:12 -12.8 °C -13.3 °C 34625.2 hPa SW 10.3 km/h 25.9 km/h 94 % 0 mm
02:17 -12.9 °C -13.4 °C 34611.7 hPa WSW 20.8 km/h 25.9 km/h 94 % 0 mm
02:22 -12.9 °C -13.4 °C 34611.7 hPa SW 20.8 km/h 25.9 km/h 94 % 0 mm
02:27 -12.9 °C -13.4 °C 34611.7 hPa SW 20.8 km/h 25.9 km/h 94 % 0 mm
02:32 -12.9 °C -13.4 °C 34611.7 hPa SW 7.7 km/h 25.9 km/h 94 % 0 mm
02:42 -12.9 °C -13.4 °C 34611.7 hPa SW 18.2 km/h 25.9 km/h 95 % 0 mm
02:47 -12.9 °C -13.4 °C 34611.7 hPa SSW 7.7 km/h 28.5 km/h 94 % 0 mm
02:52 -12.9 °C -13.4 °C 34611.7 hPa SW 7.7 km/h 28.5 km/h 95 % 0 mm
02:57 -12.9 °C -13.4 °C 34611.7 hPa WSW 2.6 km/h 25.9 km/h 94 % 0 mm
03:02 -12.9 °C -13.4 °C 34611.7 hPa West 15.6 km/h 25.9 km/h 94 % 0 mm
03:07 -12.9 °C -13.4 °C 34611.7 hPa SW 5.1 km/h 25.9 km/h 94 % 0 mm
03:12 -12.9 °C -13.4 °C 34611.7 hPa WSW 15.6 km/h 25.9 km/h 94 % 0 mm
03:17 -12.9 °C -13.4 °C 34611.7 hPa SW 18.2 km/h 25.9 km/h 94 % 0 mm
03:22 -12.9 °C -13.4 °C 34601.5 hPa WSW 18.2 km/h 25.9 km/h 94 % 0 mm
03:27 -12.9 °C -13.4 °C 34601.5 hPa SW 15.6 km/h 33.6 km/h 94 % 0 mm
03:32 -12.9 °C -13.4 °C 34601.5 hPa WSW 12.9 km/h 33.6 km/h 94 % 0 mm
03:37 -12.9 °C -13.4 °C 34601.5 hPa SW 7.7 km/h 33.6 km/h 94 % 0 mm
03:42 -13 °C -13.6 °C 34601.5 hPa WSW 10.3 km/h 33.6 km/h 93 % 0 mm
03:47 -13 °C -13.6 °C 34601.5 hPa West 18.2 km/h 28.5 km/h 93 % 0 mm
03:52 -13 °C -13.6 °C 34601.5 hPa WSW 12.9 km/h 28.5 km/h 93 % 0 mm
03:57 -13 °C -13.6 °C 34591.4 hPa West 18.2 km/h 25.9 km/h 93 % 0 mm
04:02 -13 °C -13.7 °C 34591.4 hPa WSW 18.2 km/h 25.9 km/h 92 % 0 mm
04:07 -13 °C -13.8 °C 34601.5 hPa WSW 28.5 km/h 36.2 km/h 91 % 0 mm
04:12 -13 °C -13.8 °C 34601.5 hPa WSW 15.6 km/h 36.2 km/h 91 % 0 mm
04:17 -13.1 °C -13.9 °C 34601.5 hPa South 10.3 km/h 36.2 km/h 90 % 0 mm
04:22 -13.1 °C -14 °C 34601.5 hPa WSW 18.2 km/h 36.2 km/h 89 % 0 mm
04:27 -13.1 °C -14 °C 34601.5 hPa SW 12.9 km/h 31.1 km/h 89 % 0 mm
04:32 -13.1 °C -14 °C 34601.5 hPa West 25.9 km/h 31.1 km/h 89 % 0 mm
04:37 -13.1 °C -14.1 °C 34601.5 hPa SW 20.8 km/h 33.6 km/h 88 % 0 mm
04:42 -13 °C -14.1 °C 34601.5 hPa SW 15.6 km/h 33.6 km/h 87 % 0 mm
04:47 -13.1 °C -14.1 °C 34601.5 hPa WNW 12.9 km/h 41.4 km/h 88 % 0 mm
04:52 -13.1 °C -14.2 °C 34601.5 hPa SW 12.9 km/h 41.4 km/h 87 % 0 mm
04:57 -13.1 °C -14.1 °C 34601.5 hPa SW 15.6 km/h 41.4 km/h 88 % 0 mm
05:02 -13.1 °C -14 °C 34601.5 hPa WSW 10.3 km/h 41.4 km/h 89 % 0 mm
05:12 -13.1 °C -13.9 °C 34601.5 hPa SSW 7.7 km/h 23.3 km/h 90 % 0 mm
05:17 -13.2 °C -13.9 °C 34601.5 hPa South 7.7 km/h 23.3 km/h 91 % 0 mm
05:22 -13.2 °C -13.9 °C 34601.5 hPa SW 18.2 km/h 23.3 km/h 91 % 0 mm
05:32 -13.2 °C -13.9 °C 34601.5 hPa WSW 12.9 km/h 28.5 km/h 92 % 0 mm
05:42 -13.2 °C -13.9 °C 34601.5 hPa SSW 10.3 km/h 31.1 km/h 92 % 0 mm
05:52 -13.3 °C -13.9 °C 34601.5 hPa WSW 12.9 km/h 31.1 km/h 93 % 0 mm
05:57 -13.3 °C -13.9 °C 34601.5 hPa West 7.7 km/h 23.3 km/h 93 % 0 mm
06:02 -13.3 °C -13.9 °C 34601.5 hPa SW 10.3 km/h 23.3 km/h 93 % 0 mm
06:12 -13.3 °C -13.9 °C 34591.4 hPa SW 18.2 km/h 25.9 km/h 93 % 0 mm
06:17 -13.3 °C -13.9 °C 34591.4 hPa SSW 7.7 km/h 28.5 km/h 93 % 0 mm
06:22 -13.3 °C -13.9 °C 34591.4 hPa WSW 10.3 km/h 28.5 km/h 93 % 0 mm
06:32 -13.3 °C -13.8 °C 34591.4 hPa SSW 12.9 km/h 28.5 km/h 94 % 0 mm
06:42 -13.3 °C -13.8 °C 34601.5 hPa SW 12.9 km/h 31.1 km/h 94 % 0 mm
06:47 -13.3 °C -13.8 °C 34601.5 hPa SW 20.8 km/h 31.1 km/h 94 % 0 mm
06:52 -13.3 °C -13.8 °C 34601.5 hPa West 18.2 km/h 31.1 km/h 94 % 0 mm
06:57 -13.3 °C -13.8 °C 34601.5 hPa WSW 10.3 km/h 31.1 km/h 94 % 0 mm
07:02 -13.3 °C -13.8 °C 34601.5 hPa West 15.6 km/h 31.1 km/h 94 % 0 mm
07:12 -13.4 °C -14 °C 34601.5 hPa WSW 15.6 km/h 33.6 km/h 93 % 0 mm
07:17 -13.4 °C -14 °C 34601.5 hPa WSW 23.3 km/h 33.6 km/h 93 % 0 mm
07:22 -13.4 °C -14 °C 34601.5 hPa SW 18.2 km/h 33.6 km/h 93 % 0 mm
07:27 -13.4 °C -14 °C 34601.5 hPa SW 18.2 km/h 28.5 km/h 93 % 0 mm
07:32 -13.4 °C -14 °C 34601.5 hPa WSW 7.7 km/h 28.5 km/h 93 % 0 mm
07:42 -13.4 °C -14 °C 34601.5 hPa West 7.7 km/h 28.5 km/h 93 % 0 mm
07:47 -13.4 °C -14 °C 34611.7 hPa WSW 15.6 km/h 28.5 km/h 93 % 0 mm
07:57 -13.4 °C -14 °C 34611.7 hPa SW 18.2 km/h 28.5 km/h 93 % 0 mm
08:02 -13.4 °C -14.1 °C 34611.7 hPa SW 7.7 km/h 28.5 km/h 93 % 0 mm
08:12 -13.4 °C -14.1 °C 34611.7 hPa SW 12.9 km/h 25.9 km/h 93 % 0 mm
08:17 -13.4 °C -14.1 °C 34611.7 hPa WSW 12.9 km/h 23.3 km/h 93 % 0 mm
08:22 -13.4 °C -14.1 °C 34611.7 hPa WSW 15.6 km/h 23.3 km/h 93 % 0 mm
08:32 -13.4 °C -14.1 °C 34611.7 hPa WSW 15.6 km/h 23.3 km/h 93 % 0 mm
08:42 -13.4 °C -14.1 °C 34625.2 hPa SW 12.9 km/h 23.3 km/h 92 % 0 mm
08:52 -13.4 °C -14.1 °C 34611.7 hPa SW 12.9 km/h 20.8 km/h 92 % 0 mm
09:02 -13.4 °C -14.1 °C 34625.2 hPa SW 10.3 km/h 25.9 km/h 92 % 0 mm
09:12 -13.4 °C -14.1 °C 34625.2 hPa SW 20.8 km/h 33.6 km/h 92 % 0 mm
09:17 -13.4 °C -14.1 °C 34625.2 hPa SSW 7.7 km/h 25.9 km/h 92 % 0 mm
09:22 -13.4 °C -14.1 °C 34625.2 hPa WSW 7.7 km/h 25.9 km/h 92 % 0 mm
09:32 -13.4 °C -14.1 °C 34625.2 hPa SW 15.6 km/h 23.3 km/h 92 % 0 mm
09:42 -13.4 °C -14.1 °C 34625.2 hPa SW 7.7 km/h 25.9 km/h 92 % 0 mm
09:52 -13.4 °C -14.1 °C 34625.2 hPa SW 5.1 km/h 25.9 km/h 92 % 0 mm
09:57 -13.4 °C -14.1 °C 34625.2 hPa SW 10.3 km/h 20.8 km/h 92 % 0 mm
10:02 -13.4 °C -14.1 °C 34625.2 hPa SSW 18.2 km/h 20.8 km/h 92 % 0 mm
10:12 -13.4 °C -14.1 °C 34625.2 hPa SW 10.3 km/h 28.5 km/h 92 % 0 mm
10:17 -13.4 °C -14.1 °C 34625.2 hPa SW 7.7 km/h 25.9 km/h 92 % 0 mm
10:22 -13.4 °C -14.1 °C 34611.7 hPa WSW 7.7 km/h 25.9 km/h 92 % 0 mm
10:32 -13.4 °C -14.1 °C 34625.2 hPa SW 7.7 km/h 25.9 km/h 92 % 0 mm
10:42 -13.4 °C -14.1 °C 34625.2 hPa SW 10.3 km/h 25.9 km/h 92 % 0 mm
10:47 -13.4 °C -14.1 °C 34625.2 hPa WSW 10.3 km/h 23.3 km/h 92 % 0 mm
10:52 -13.4 °C -14.1 °C 34625.2 hPa SW 10.3 km/h 23.3 km/h 92 % 0 mm
11:02 -13.4 °C -14.1 °C 34625.2 hPa SW 10.3 km/h 20.8 km/h 92 % 0 mm
11:12 -13.3 °C -14 °C 34625.2 hPa SW 15.6 km/h 25.9 km/h 92 % 0 mm
11:17 -13.4 °C -14.1 °C 34625.2 hPa WSW 10.3 km/h 25.9 km/h 92 % 0 mm
11:22 -13.4 °C -14 °C 34625.2 hPa WSW 12.9 km/h 25.9 km/h 93 % 0 mm
11:32 -13.3 °C -13.9 °C 34611.7 hPa WSW 12.9 km/h 23.3 km/h 93 % 0 mm
11:37 -13.3 °C -13.9 °C 34611.7 hPa WSW 7.7 km/h 20.8 km/h 93 % 0 mm
11:42 -13.3 °C -13.9 °C 34625.2 hPa West 5.1 km/h 20.8 km/h 93 % 0 mm
11:47 -13.3 °C -13.9 °C 34611.7 hPa SW 15.6 km/h 23.3 km/h 93 % 0 mm
11:52 -13.3 °C -13.9 °C 34625.2 hPa West 12.9 km/h 23.3 km/h 92 % 0 mm
11:57 -13.3 °C -13.9 °C 34611.7 hPa SW 18.2 km/h 28.5 km/h 92 % 0 mm
12:02 -13.2 °C -13.9 °C 34611.7 hPa WSW 18.2 km/h 28.5 km/h 92 % 0 mm
12:12 -13.2 °C -13.9 °C 34611.7 hPa WSW 12.9 km/h 31.1 km/h 92 % 0 mm
12:17 -13.2 °C -13.9 °C 34611.7 hPa WSW 15.6 km/h 31.1 km/h 91 % 0 mm
12:22 -13.2 °C -13.9 °C 34611.7 hPa SW 18.2 km/h 31.1 km/h 91 % 0 mm
12:27 -13.2 °C -13.9 °C 34611.7 hPa WSW 7.7 km/h 31.1 km/h 91 % 0 mm
12:32 -13.1 °C -13.9 °C 34611.7 hPa WSW 18.2 km/h 31.1 km/h 91 % 0 mm
12:37 -13.1 °C -13.9 °C 34611.7 hPa SW 15.6 km/h 31.1 km/h 90 % 0 mm
12:42 -13.1 °C -13.8 °C 34611.7 hPa SSW 18.2 km/h 31.1 km/h 91 % 0 mm
12:47 -13.1 °C -13.9 °C 34611.7 hPa WSW 15.6 km/h 28.5 km/h 90 % 0 mm
12:52 -13.1 °C -13.9 °C 34611.7 hPa SW 12.9 km/h 28.5 km/h 90 % 0 mm
12:57 -13.1 °C -13.9 °C 34611.7 hPa West 12.9 km/h 28.5 km/h 90 % 0 mm
13:02 -13.1 °C -13.9 °C 34601.5 hPa West 12.9 km/h 28.5 km/h 90 % 0 mm
13:07 -13 °C -13.8 °C 34601.5 hPa West 10.3 km/h 36.2 km/h 90 % 0 mm
13:12 -13 °C -13.8 °C 34601.5 hPa WSW 15.6 km/h 36.2 km/h 90 % 0 mm
13:17 -12.9 °C -13.9 °C 34591.4 hPa WSW 20.8 km/h 36.2 km/h 89 % 0 mm
13:22 -12.9 °C -13.9 °C 34591.4 hPa WSW 20.8 km/h 36.2 km/h 89 % 0 mm
13:27 -12.9 °C -13.9 °C 34591.4 hPa WSW 18.2 km/h 33.6 km/h 89 % 0 mm
13:32 -12.9 °C -13.8 °C 34591.4 hPa WSW 15.6 km/h 33.6 km/h 89 % 0 mm
13:37 -12.8 °C -13.9 °C 34591.4 hPa SW 10.3 km/h 44.1 km/h 88 % 0 mm
13:42 -12.7 °C -13.8 °C 34591.4 hPa WSW 25.9 km/h 44.1 km/h 88 % 0 mm
13:47 -12.7 °C -13.8 °C 34591.4 hPa SW 23.3 km/h 41.4 km/h 87 % 0 mm
13:52 -12.7 °C -13.8 °C 34591.4 hPa SSW 23.3 km/h 41.4 km/h 87 % 0 mm
13:57 -12.7 °C -13.8 °C 34591.4 hPa WSW 18.2 km/h 36.2 km/h 87 % 0 mm
14:02 -12.7 °C -13.8 °C 34591.4 hPa SW 12.9 km/h 36.2 km/h 87 % 0 mm
14:12 -12.7 °C -13.8 °C 34577.8 hPa West 15.6 km/h 44.1 km/h 87 % 0 mm
14:17 -12.6 °C -13.8 °C 34577.8 hPa SW 7.7 km/h 38.8 km/h 86 % 0 mm
14:22 -12.6 °C -13.8 °C 34577.8 hPa SW 12.9 km/h 38.8 km/h 86 % 0 mm
14:32 -12.7 °C -14 °C 34577.8 hPa SW 31.1 km/h 38.8 km/h 85 % 0 mm
14:42 -12.6 °C -13.8 °C 34567.7 hPa SSW 7.7 km/h 49.2 km/h 86 % 0 mm
14:47 -12.6 °C -13.8 °C 34567.7 hPa SW 25.9 km/h 36.2 km/h 86 % 0 mm
14:52 -12.6 °C -13.9 °C 34554.1 hPa West 23.3 km/h 36.2 km/h 85 % 0 mm
15:02 -12.6 °C -13.9 °C 34554.1 hPa WSW 18.2 km/h 41.4 km/h 85 % 0 mm
15:07 -12.6 °C -13.9 °C 34554.1 hPa West 25.9 km/h 38.8 km/h 85 % 0 mm
15:12 -12.5 °C -13.9 °C 34554.1 hPa SW 23.3 km/h 38.8 km/h 84 % 0 mm
15:17 -12.4 °C -13.9 °C 34554.1 hPa WSW 12.9 km/h 51.8 km/h 84 % 0 mm
15:22 -12.4 °C -13.9 °C 34554.1 hPa WSW 20.8 km/h 51.8 km/h 84 % 0 mm
15:27 -12.4 °C -13.8 °C 34554.1 hPa SW 20.8 km/h 51.8 km/h 84 % 0 mm
15:32 -12.4 °C -13.8 °C 34554.1 hPa SW 25.9 km/h 51.8 km/h 84 % 0 mm
15:37 -12.4 °C -13.8 °C 34544 hPa West 18.2 km/h 44.1 km/h 84 % 0 mm
15:42 -12.4 °C -13.8 °C 34554.1 hPa SW 15.6 km/h 44.1 km/h 84 % 0 mm
15:47 -12.4 °C -13.8 °C 34544 hPa WSW 31.1 km/h 49.2 km/h 84 % 0 mm
15:52 -12.4 °C -13.8 °C 34544 hPa WSW 10.3 km/h 49.2 km/h 84 % 0 mm
15:57 -12.4 °C -13.8 °C 34544 hPa SW 10.3 km/h 38.8 km/h 84 % 0 mm
16:02 -12.4 °C -13.8 °C 34544 hPa WSW 15.6 km/h 38.8 km/h 84 % 0 mm
16:07 -12.4 °C -13.8 °C 34544 hPa WSW 23.3 km/h 36.2 km/h 84 % 0 mm
16:12 -12.4 °C -13.8 °C 34544 hPa SW 15.6 km/h 36.2 km/h 84 % 0 mm
16:17 -12.3 °C -13.8 °C 34554.1 hPa SSW 7.7 km/h 38.8 km/h 83 % 0 mm
16:22 -12.3 °C -13.8 °C 34544 hPa SSW 7.7 km/h 38.8 km/h 83 % 0 mm
16:32 -12.3 °C -13.8 °C 34544 hPa WSW 15.6 km/h 38.8 km/h 83 % 0 mm
16:37 -12.4 °C -13.9 °C 34544 hPa SW 20.8 km/h 38.8 km/h 83 % 0 mm
16:42 -12.4 °C -13.9 °C 34544 hPa West 15.6 km/h 38.8 km/h 83 % 0 mm
16:47 -12.4 °C -13.9 °C 34544 hPa West 25.9 km/h 36.2 km/h 83 % 0 mm
16:52 -12.4 °C -13.8 °C 34533.8 hPa SSW 10.3 km/h 36.2 km/h 84 % 0 mm
16:57 -12.4 °C -13.9 °C 34533.8 hPa West 7.7 km/h 38.8 km/h 83 % 0 mm
17:02 -12.4 °C -13.9 °C 34533.8 hPa WSW 15.6 km/h 38.8 km/h 83 % 0 mm
17:07 -12.4 °C -13.8 °C 34533.8 hPa SSW 10.3 km/h 31.1 km/h 84 % 0 mm
17:12 -12.4 °C -13.8 °C 34533.8 hPa SW 7.7 km/h 31.1 km/h 84 % 0 mm
17:17 -12.4 °C -13.9 °C 34533.8 hPa SW 7.7 km/h 31.1 km/h 84 % 0 mm
17:22 -12.4 °C -13.9 °C 34533.8 hPa SW 18.2 km/h 31.1 km/h 84 % 0 mm
17:27 -12.4 °C -13.9 °C 34533.8 hPa SW 25.9 km/h 33.6 km/h 84 % 0 mm
17:32 -12.4 °C -13.9 °C 34533.8 hPa SW 28.5 km/h 33.6 km/h 84 % 0 mm
17:37 -12.4 °C -13.9 °C 34520.3 hPa WSW 25.9 km/h 33.6 km/h 84 % 0 mm
17:42 -12.4 °C -13.9 °C 34520.3 hPa SW 25.9 km/h 33.6 km/h 84 % 0 mm
17:47 -12.4 °C -13.9 °C 34533.8 hPa SW 15.6 km/h 33.6 km/h 84 % 0 mm
17:52 -12.4 °C -13.9 °C 34520.3 hPa WSW 15.6 km/h 33.6 km/h 84 % 0 mm
17:57 -12.5 °C -13.9 °C 34533.8 hPa SW 15.6 km/h 36.2 km/h 84 % 0 mm
18:02 -12.5 °C -13.9 °C 34533.8 hPa SW 10.3 km/h 36.2 km/h 84 % 0 mm
18:07 -12.5 °C -13.9 °C 34533.8 hPa SW 15.6 km/h 38.8 km/h 84 % 0 mm
18:12 -12.6 °C -14 °C 34533.8 hPa West 15.6 km/h 38.8 km/h 84 % 0 mm
18:17 -12.6 °C -14 °C 34533.8 hPa West 10.3 km/h 38.8 km/h 84 % 0 mm
18:22 -12.6 °C -14 °C 34533.8 hPa WSW 18.2 km/h 33.6 km/h 84 % 0 mm
18:27 -12.6 °C -14 °C 34533.8 hPa SW 18.2 km/h 33.6 km/h 84 % 0 mm
18:32 -12.6 °C -14.1 °C 34520.3 hPa SW 12.9 km/h 31.1 km/h 84 % 0 mm
18:37 -12.6 °C -14.1 °C 34520.3 hPa SW 31.1 km/h 31.1 km/h 84 % 0 mm
18:42 -12.6 °C -14.1 °C 34520.3 hPa SW 7.7 km/h 31.1 km/h 84 % 0 mm
18:47 -12.6 °C -14.1 °C 34520.3 hPa SW 25.9 km/h 36.2 km/h 84 % 0 mm
18:52 -12.7 °C -14.1 °C 34520.3 hPa SW 20.8 km/h 36.2 km/h 84 % 0 mm
18:57 -12.7 °C -14.1 °C 34520.3 hPa SW 23.3 km/h 36.2 km/h 84 % 0 mm
19:02 -12.7 °C -14.1 °C 34520.3 hPa SW 23.3 km/h 36.2 km/h 84 % 0 mm
19:07 -12.7 °C -14.1 °C 34520.3 hPa WSW 25.9 km/h 33.6 km/h 84 % 0 mm
19:12 -12.7 °C -14.1 °C 34520.3 hPa SW 20.8 km/h 33.6 km/h 84 % 0 mm
19:17 -12.7 °C -14.1 °C 34520.3 hPa SW 12.9 km/h 36.2 km/h 84 % 0 mm
19:22 -12.7 °C -14.2 °C 34520.3 hPa WSW 20.8 km/h 36.2 km/h 84 % 0 mm
19:32 -12.7 °C -14.2 °C 34520.3 hPa South 15.6 km/h 33.6 km/h 84 % 0 mm
19:37 -12.7 °C -14.2 °C 34520.3 hPa WSW 20.8 km/h 33.6 km/h 84 % 0 mm
19:42 -12.7 °C -14.2 °C 34520.3 hPa SSW 18.2 km/h 33.6 km/h 84 % 0 mm
19:47 -12.7 °C -14.2 °C 34520.3 hPa SW 12.9 km/h 33.6 km/h 84 % 0 mm
19:57 -12.7 °C -14.2 °C 34520.3 hPa WSW 23.3 km/h 31.1 km/h 84 % 0 mm
20:02 -12.8 °C -14.1 °C 34520.3 hPa SSW 10.3 km/h 31.1 km/h 85 % 0 mm
20:12 -12.8 °C -14.1 °C 34520.3 hPa West 20.8 km/h 36.2 km/h 85 % 0 mm
20:17 -12.8 °C -14.2 °C 34520.3 hPa WSW 20.8 km/h 31.1 km/h 85 % 0 mm
20:22 -12.8 °C -14.3 °C 34520.3 hPa WSW 18.2 km/h 31.1 km/h 84 % 0 mm
20:27 -12.8 °C -14.3 °C 34520.3 hPa SW 12.9 km/h 28.5 km/h 84 % 0 mm
20:32 -12.8 °C -14.3 °C 34520.3 hPa WSW 12.9 km/h 28.5 km/h 84 % 0 mm
20:37 -12.8 °C -14.3 °C 34520.3 hPa SW 5.1 km/h 33.6 km/h 84 % 0 mm
20:42 -12.8 °C -14.3 °C 34520.3 hPa WSW 12.9 km/h 33.6 km/h 84 % 0 mm
20:47 -12.8 °C -14.3 °C 34520.3 hPa SW 25.9 km/h 28.5 km/h 84 % 0 mm
20:52 -12.8 °C -14.3 °C 34520.3 hPa SW 5.1 km/h 28.5 km/h 84 % 0 mm
20:57 -12.8 °C -14.2 °C 34520.3 hPa SSW 15.6 km/h 28.5 km/h 85 % 0 mm
21:02 -12.8 °C -14.2 °C 34520.3 hPa WSW 12.9 km/h 28.5 km/h 85 % 0 mm
21:07 -12.9 °C -14.2 °C 34510.1 hPa SW 15.6 km/h 25.9 km/h 85 % 0 mm
21:12 -12.9 °C -14.2 °C 34510.1 hPa SW 15.6 km/h 25.9 km/h 85 % 0 mm
21:17 -12.9 °C -14.2 °C 34510.1 hPa SSW 10.3 km/h 31.1 km/h 85 % 0 mm
21:22 -12.9 °C -14.2 °C 34510.1 hPa WSW 18.2 km/h 31.1 km/h 85 % 0 mm
21:27 -12.9 °C -14.2 °C 34510.1 hPa WSW 15.6 km/h 31.1 km/h 85 % 0 mm
21:32 -12.9 °C -14.2 °C 34510.1 hPa WSW 15.6 km/h 31.1 km/h 85 % 0 mm
21:37 -12.9 °C -14.3 °C 34510.1 hPa West 15.6 km/h 33.6 km/h 84 % 0 mm
21:42 -12.9 °C -14.3 °C 34510.1 hPa SW 20.8 km/h 33.6 km/h 84 % 0 mm
21:47 -12.9 °C -14.2 °C 34510.1 hPa West 10.3 km/h 38.8 km/h 85 % 0 mm
21:52 -12.9 °C -14.3 °C 34510.1 hPa SW 18.2 km/h 38.8 km/h 85 % 0 mm
22:02 -12.9 °C -14.2 °C 34510.1 hPa WSW 25.9 km/h 28.5 km/h 86 % 0 mm
22:07 -12.9 °C -14.3 °C 34496.6 hPa SW 5.1 km/h 31.1 km/h 85 % 0 mm
22:12 -12.9 °C -14.3 °C 34496.6 hPa WSW 15.6 km/h 31.1 km/h 85 % 0 mm
22:17 -12.9 °C -14.2 °C 34496.6 hPa WSW 12.9 km/h 36.2 km/h 86 % 0 mm
22:22 -12.9 °C -14.2 °C 34496.6 hPa WSW 23.3 km/h 36.2 km/h 86 % 0 mm
22:27 -12.9 °C -14.2 °C 34496.6 hPa SW 18.2 km/h 33.6 km/h 86 % 0 mm
22:32 -13 °C -14.2 °C 34496.6 hPa WSW 20.8 km/h 33.6 km/h 86 % 0 mm
22:37 -13 °C -14.1 °C 34486.4 hPa SW 7.7 km/h 28.5 km/h 87 % 0 mm
22:42 -13 °C -14.1 °C 34486.4 hPa SW 18.2 km/h 28.5 km/h 87 % 0 mm
22:47 -13 °C -14.1 °C 34486.4 hPa SW 12.9 km/h 31.1 km/h 87 % 0 mm
22:52 -13 °C -14.1 °C 34486.4 hPa WSW 15.6 km/h 31.1 km/h 87 % 0 mm
22:57 -13 °C -14.1 °C 34486.4 hPa SW 20.8 km/h 33.6 km/h 87 % 0 mm
23:02 -13.1 °C -14.2 °C 34486.4 hPa SW 18.2 km/h 33.6 km/h 87 % 0 mm
23:12 -13.1 °C -14.2 °C 34476.3 hPa SSW 12.9 km/h 33.6 km/h 88 % 0 mm
23:17 -13.1 °C -14.2 °C 34476.3 hPa WSW 15.6 km/h 31.1 km/h 87 % 0 mm
23:22 -13.1 °C -14.2 °C 34476.3 hPa SW 15.6 km/h 31.1 km/h 87 % 0 mm
23:32 -13.1 °C -14.2 °C 34476.3 hPa SSW 5.1 km/h 31.1 km/h 87 % 0 mm
23:37 -13.1 °C -14.2 °C 34476.3 hPa SSW 12.9 km/h 28.5 km/h 87 % 0 mm
23:42 -13.1 °C -14.2 °C 34462.7 hPa SSE 7.7 km/h 28.5 km/h 88 % 0 mm
23:47 -13.2 °C -14.2 °C 34462.7 hPa SW 10.3 km/h 23.3 km/h 88 % 0 mm
23:52 -13.1 °C -14.2 °C 34462.7 hPa SW 12.9 km/h 23.3 km/h 88 % 0 mm
Meteo18
Compliments of Weather Underground - 4 mb

Script developed by  Jim McMurry - jmcmurry@mwt.net Adapted for the template by  Wim van der Kuil - Leuven-Template.eu

You find our weather info also at:

European Weather Network

Weather Underground

Equipment we use:

Weather-station
Davis Vue

Weather-program
Meteobridge

Weather-server
Raspberry PI 2 B+

Provider
1 and 1

Davis Vue

Meteobridge

Raspberry PI 2 B+

1 and 1